{"data":{"norad_id":48319,"epoch":"2026-09-20T00:28:51.176064Z","epoch_age_seconds":52664,"freshness":"FRESH","line1":"1 48319U 21036AV  26263.02003676 -.00000105  00000+0  84027-5 0  9992","line2":"2 48319  53.1588 276.7564 0001508  94.2788 265.8386 15.31697315297812","mean_motion":15.31697315,"eccentricity":0.0001508,"inclination_deg":53.1588,"raan_deg":276.7564,"arg_perigee_deg":94.2788,"mean_anomaly_deg":265.8386,"bstar":8.4027e-6,"rev_number":29781,"period_min":94.013352762194,"perigee_km":469.71518722476,"apogee_km":471.78081094048,"semimajor_km":6848.8849990826,"source":"CELESTRAK","updated_at":"2026-09-20T09:00:38.935569Z"}}